STARLINK-4761 (53830 NORAD) Tracking and Keplerian Element Data

This shows tracking and keplerian element data for the satellite.

Feedback or suggestion? Click here.




ElementValue
Catalog53830
NameSTARLINK-4761
Epoch Orbit1047
Epoch Day325.33334491
Epoch Year2022
RAAN310.588
Inclination53.2173
Eccentricity0.0001652
Argument of Perigee43.8719
Mean Anonmoly33.6109
Mean Motion15.16347515
Decay Rate-0.01154461
L11 53830U 22114N 22325.33334491 -.01154461 00000+0 -63845-1 0 9993
L22 53830 53.2173 310.5880 0001652 43.8719 33.6109 15.16347515 10475



Live tracking and technical data element details for STARLINK-4761 (NORAD 53830). STARLINK-4761 can be tracked NOW for your location showing map with azimuth and elevation plus other details from your city location.







IsCatalogInMostPopularTable: catalog: 53830, numindb: -1

Insert: records affected: 1


GetName: 53830 STARLINK-4761

Hit Count: inserted at: Mon, 28 Nov 2022 05:56:23 GMT